[[{"header":{"parameterUnit":"m.s-1","parameterCategory":1,"la1":30.2991,"la2":30.254,"lo1":-89.0895,"lo2":-89.0444,"dy":0.0017,"dx":0.0017,"nx":28,"ny":28,"refTime":"2024-05-17T09:00:00:Z","depth":0,"parameterNumber":2,"parameterNumberName":"U-component_of_WINDS"},"data":[0,0,0,0,0,0,0,0,0,0,0,0,0,0,0,0,0,0,0,0,0,0,0,0,0,0,0,0,0,0,0,0,0,0,0,0,0,0,0,0,0,0,0,0,0,0,0,0,0,0,0,0,0,0,0,0,0,0,-2.4042,-2.4044,0,-2.4165,-2.4166,-2.4168,-2.4169,-2.4168,-2.4166,-2.4165,-2.4293,-2.4298,-2.4303,0,0,0,0,0,0,0,0,0,0,0,0,0,-2.3814,-2.3818,-2.4042,-2.4044,-2.4045,-2.4165,-2.4166,-2.4168,-2.4169,-2.4167,-2.4166,-2.4164,-2.4292,-2.4297,-2.4303,0,0,0,0,0,0,0,0,0,0,0,0,0,-2.3923,-2.382,-2.4042,-2.406,-2.4063,-2.4164,-2.4166,-2.4168,-2.417,-2.4167,-2.4165,-2.4163,-2.429,-2.4297,-2.4304,-2.4396,0,0,-2.4326,-2.433,0,0,0,0,0,0,0,0,-2.3916,-2.3931,-2.4056,-2.4059,-2.4063,-2.4149,-2.4133,-2.4245,-2.417,-2.4129,-2.4164,-2.4162,-2.4247,-2.4258,-2.4286,-2.4402,-2.4408,-2.4327,-2.4332,-2.4335,-2.4337,0,0,0,0,0,0,0,-2.3909,-2.3926,-2.4091,-2.4058,-2.4062,-2.4064,-2.4077,-2.4154,-2.42,-2.4133,-2.4133,-2.4147,-2.4249,-2.4279,-2.4289,-2.4409,-2.4327,-2.4333,-2.4338,-2.4341,-2.4608,-2.461,0,0,0,0,0,0,-2.3897,-2.3919,-2.4087,-2.4094,-2.3982,-2.407,-2.4084,-2.4124,-2.4199,-2.4208,-2.4149,-2.4147,-2.4268,-2.4281,-2.4294,-2.4406,-2.4335,-2.4341,-2.4346,-2.4605,-2.4608,-2.4611,0,0,0,0,0,0,-2.3892,-2.3912,-2.4082,-2.4007,-2.4029,-2.4076,-2.4121,-2.4127,-2.4158,-2.4212,-2.422,-2.4172,-2.4267,-2.4284,-2.4371,-2.4411,-2.4345,-2.4351,-2.4602,-2.4606,-2.461,-2.4632,0,0,0,0,0,0,-2.3886,-2.391,-2.3944,-2.4008,-2.4033,-2.4155,-2.4123,-2.4132,-2.417,-2.4168,-2.4235,-2.4244,-2.4266,-2.436,-2.4378,-2.442,-2.4357,-2.4598,-2.4604,-2.4608,-2.4628,-2.4636,-2.4643,0,0,0,0,0,-2.3878,-2.3947,-2.3946,-2.3966,-2.4076,-2.4158,-2.4172,-2.4195,-2.4173,-2.4209,-2.4244,-2.4242,-2.4404,-2.4368,-2.4389,-2.4434,-2.4596,-2.4602,-2.4608,-2.4624,-2.4634,-2.4643,0,0,0,0,0,0,-2.3888,-2.3955,-2.3955,-2.4047,-2.4096,-2.4158,-2.4203,-2.4205,-2.4263,-2.4259,-2.4287,-2.4302,-2.4388,-2.442,-2.4379,-2.4527,-2.4497,-2.4508,-2.4503,-2.4513,-2.452,-2.451,-2.4363,0,0,0,0,0,-2.39,-2.3959,-2.4016,-2.4091,-2.4116,-2.4155,-2.4191,-2.4205,-2.4258,-2.4279,-2.432,-2.4373,-2.4436,-2.4476,-2.4537,-2.4633,-2.4648,-2.4674,-2.4682,-2.4688,-2.4696,-2.475,-2.4762,-2.4631,-2.4631,-2.4631,0,0,-2.3927,-2.3972,-2.4007,-2.4094,-2.4134,-2.4195,-2.4173,-2.4239,-2.4285,-2.429,-2.4373,-2.4406,-2.4467,-2.4558,-2.4601,-2.4587,-2.4736,-2.4696,-2.47,-2.4705,-2.4757,-2.477,-2.4781,-2.4635,-2.4635,-2.4634,0,0,-2.4008,-2.4047,-2.4114,-2.4154,-2.4215,-2.4241,-2.4257,-2.4319,-2.434,-2.4424,-2.4429,-2.4486,-2.4593,-2.4636,-2.4672,-2.4771,-2.4771,-2.479,-2.483,-2.4882,-2.4892,-2.4902,-2.4936,-2.4948,-2.4798,-2.4798,-2.4799,0,-2.4034,-2.4125,-2.4148,-2.4214,-2.4252,-2.4259,-2.4328,-2.4366,-2.4444,-2.4471,-2.4455,-2.4591,-2.4632,-2.4734,-2.4758,-2.4787,-2.4807,-2.4781,-2.4889,-2.4898,-2.4907,-2.4941,-2.4954,-2.48,-2.48,-2.48,-2.48,0,-2.4154,-2.4218,-2.4265,-2.4338,-2.4382,-2.4449,-2.4484,-2.4526,-2.4537,-2.4565,-2.4652,-2.4702,-2.4773,-2.4799,-2.481,-2.4903,-2.4893,-2.4883,-2.4853,-2.4921,-2.4953,-2.4966,-2.4803,-2.4802,-2.4802,-2.4801,0,0,-2.4242,-2.4328,-2.4345,-2.4379,-2.4447,-2.4497,-2.4566,-2.4634,-2.4669,-2.4724,-2.4782,-2.4874,-2.4865,-2.4906,-2.4923,-2.4968,-2.5043,-2.4953,-2.4955,-2.4967,-2.5148,-2.5154,-2.5169,-2.5044,-2.5047,-2.5049,-2.5143,0,-2.4329,-2.4448,-2.4471,-2.4576,-2.4635,-2.4643,-2.4703,-2.4752,-2.4781,-2.4836,-2.4869,-2.4933,-2.4917,-2.4942,-2.4987,-2.5024,-2.5079,-2.5018,-2.5099,-2.5102,-2.5082,-2.5185,-2.5192,-2.5278,-2.5156,-2.5158,-2.5159,0,-2.4446,-2.4501,-2.4611,-2.4671,-2.4697,-2.475,-2.4815,-2.4868,-2.4925,-2.4943,-2.4989,-2.5001,-2.5073,-2.5042,-2.5143,-2.51,-2.5136,-2.5159,-2.5163,-2.517,-2.5133,-2.5195,-2.5306,-2.5319,-2.5179,-2.5178,-2.5176,0,-2.4498,-2.4601,-2.4679,-2.4708,-2.4781,-2.4818,-2.485,-2.4904,-2.4944,-2.5002,-2.5029,-2.5095,-2.5131,-2.5183,-2.5213,-2.5187,-2.5312,-2.5282,-2.5329,-2.5328,-2.5353,-2.5351,-2.5471,-2.5378,-2.5378,-2.5378,-2.5378,0,-2.4591,-2.4658,-2.4704,-2.4752,-2.4827,-2.4855,-2.4929,-2.4962,-2.501,-2.5066,-2.5078,-2.5131,-2.5168,-2.5226,-2.5251,-2.5331,-2.5347,-2.5364,-2.537,-2.5363,-2.536,-2.5385,-2.5379,-2.5381,-2.5381,-2.538,-2.5379,0,-2.4662,-2.4695,-2.4781,-2.4843,-2.486,-2.4913,-2.4967,-2.5015,-2.5045,-2.5115,-2.5134,-2.518,-2.525,-2.5285,-2.5372,-2.5389,-2.5479,-2.5481,-2.5459,-2.5461,-2.5505,-2.55,-2.5644,-2.5665,-2.5559,-2.556,-2.5561,0,-2.4718,-2.4769,-2.4837,-2.4874,-2.4907,-2.4968,-2.5008,-2.5039,-2.5081,-2.515,-2.519,-2.526,-2.5317,-2.5428,-2.547,-2.5537,-2.5541,-2.5587,-2.5551,-2.5542,-2.5541,-2.5537,-2.5542,-2.5593,-2.5594,-2.5594,-2.5595,0,-2.4815,-2.4829,-2.4887,-2.495,-2.4998,-2.505,-2.5101,-2.5132,-2.5171,-2.5218,-2.5288,-2.5333,-2.5421,-2.5491,-2.5561,-2.5596,-2.5603,-2.5606,-2.5621,-2.5613,-2.5597,-2.5606,-2.5475,-2.5602,-2.5602,-2.5601,-2.5601,-2.56,-2.488,-2.4926,-2.498,-2.5044,-2.5086,-2.5134,-2.5182,-2.5217,-2.5276,-2.5349,-2.5364,-2.5439,-2.5496,-2.5591,-2.5628,-2.5688,-2.5678,-2.5699,-2.5704,-2.5709,-2.571,-2.5589,-2.5701,-2.5701,-2.5701,-2.5701,-2.5701,0,-2.4977,-2.5013,-2.5071,-2.5142,-2.5192,-2.5193,-2.5251,-2.5293,-2.5358,-2.541,-2.5466,-2.5547,-2.5615,-2.5664,-2.5733,-2.5772,-2.5777,-2.5789,-2.5786,-2.5794,-2.5715,-2.5695,-2.5784,-2.5784,-2.5784,-2.5784,-2.5784,-2.5784,-2.5033,-2.5111,-2.5132,-2.5231,-2.5266,-2.5338,-2.5371,-2.5416,-2.5457,-2.5547,-2.5603,-2.5634,-2.5685,-2.5758,-2.5821,-2.5834,-2.5858,-2.5871,-2.5883,-2.5808,-2.58,-2.5791,-2.5773,-2.5876,-2.5876,-2.5957,-2.5958,-2.5958]},{"header":{"parameterUnit":"m.s-1","parameterCategory":1,"la1":30.2991,"la2":30.254,"lo1":-89.0895,"lo2":-89.0444,"dy":0.0017,"dx":0.0017,"nx":28,"ny":28,"refTime":"2024-05-17T09:00:00:Z","depth":0,"parameterNumber":3,"parameterNumberName":"V-component_of_WINDS"},"data":[0,0,0,0,0,0,0,0,0,0,0,0,0,0,0,0,0,0,0,0,0,0,0,0,0,0,0,0,0,0,0,0,0,0,0,0,0,0,0,0,0,0,0,0,0,0,0,0,0,0,0,0,0,0,0,0,0,0,3.0972,3.0972,0,3.0949,3.0949,3.0949,3.0913,3.0913,3.0912,3.0912,3.0888,3.0888,3.0887,0,0,0,0,0,0,0,0,0,0,0,0,0,3.0986,3.0986,3.0972,3.0972,3.0972,3.0949,3.0949,3.0949,3.0913,3.0913,3.0912,3.0911,3.0888,3.0888,3.0887,0,0,0,0,0,0,0,0,0,0,0,0,0,3.0973,3.0986,3.0973,3.0952,3.0949,3.0949,3.0949,3.0949,3.0914,3.0913,3.0912,3.0911,3.0888,3.0888,3.0887,3.0906,0,0,3.0887,3.0887,0,0,0,0,0,0,0,0,3.0974,3.0973,3.0955,3.0953,3.0951,3.0933,3.0945,3.0934,3.0914,3.0927,3.0911,3.091,3.0904,3.0902,3.09,3.0905,3.0904,3.0887,3.0887,3.0887,3.0887,0,0,0,0,0,0,0,3.0975,3.0973,3.0963,3.0955,3.0952,3.0943,3.094,3.0943,3.0921,3.0926,3.0923,3.0921,3.0902,3.09,3.0899,3.0904,3.0887,3.0887,3.0887,3.0887,3.0923,3.0924,0,0,0,0,0,0,3.0979,3.0974,3.0964,3.0963,3.096,3.0944,3.0941,3.094,3.0921,3.0917,3.0922,3.092,3.0901,3.0899,3.0898,3.0918,3.0887,3.0887,3.0887,3.0922,3.0923,3.0924,0,0,0,0,0,0,3.0979,3.0978,3.0965,3.0968,3.0965,3.0945,3.0944,3.094,3.0938,3.0918,3.0914,3.0924,3.09,3.0898,3.0904,3.0917,3.0887,3.0887,3.0921,3.0922,3.0923,3.096,0,0,0,0,0,0,3.098,3.0979,3.0985,3.0968,3.0965,3.0972,3.0945,3.094,3.0938,3.0934,3.0918,3.0915,3.0899,3.0905,3.0904,3.0917,3.0887,3.0919,3.0921,3.0923,3.0957,3.0962,3.0967,0,0,0,0,0,3.098,3.0997,3.0986,3.0985,3.0974,3.0973,3.0971,3.0952,3.0939,3.0946,3.0933,3.0915,3.0916,3.0906,3.0905,3.0917,3.0918,3.0921,3.0923,3.0955,3.0961,3.0966,0,0,0,0,0,0,3.1016,3.0994,3.0982,3.0993,3.0985,3.0967,3.0975,3.0959,3.0955,3.0952,3.0929,3.0926,3.0935,3.0927,3.0916,3.0934,3.0914,3.0917,3.0939,3.0945,3.0949,3.0951,3.0887,0,0,0,0,0,3.1025,3.1026,3.1007,3.1018,3.1015,3.0996,3.0994,3.0981,3.0972,3.0968,3.0956,3.0947,3.0945,3.0945,3.0942,3.0956,3.0952,3.0964,3.0969,3.0973,3.0975,3.0982,3.0987,3.0931,3.0931,3.0931,0,0,3.1044,3.1032,3.1034,3.1025,3.1017,3.1019,3.0993,3.0996,3.0997,3.0968,3.0973,3.0964,3.0953,3.0964,3.0967,3.0957,3.0989,3.0975,3.0979,3.0979,3.0984,3.099,3.0994,3.0933,3.0932,3.0932,0,0,3.1079,3.107,3.1079,3.1071,3.106,3.1047,3.1049,3.1033,3.1026,3.1031,3.1009,3.101,3.1008,3.1001,3.0997,3.103,3.1013,3.1029,3.1053,3.106,3.1065,3.1069,3.108,3.1085,3.1032,3.1032,3.1032,0,3.1103,3.1105,3.1085,3.1089,3.1086,3.106,3.1069,3.1063,3.1051,3.105,3.1038,3.1034,3.1025,3.1034,3.1042,3.1039,3.1041,3.1031,3.1066,3.1069,3.1073,3.1083,3.1088,3.1034,3.1033,3.1033,3.1033,0,3.1136,3.1137,3.1146,3.1135,3.1133,3.114,3.1121,3.1121,3.1107,3.1096,3.1101,3.1089,3.1084,3.1084,3.1071,3.1091,3.1085,3.107,3.105,3.108,3.109,3.1094,3.1037,3.1036,3.1035,3.1035,0,0,3.1192,3.1171,3.1174,3.1169,3.1155,3.1156,3.1161,3.1156,3.1156,3.1149,3.1153,3.1151,3.1138,3.1133,3.1119,3.1125,3.1152,3.1109,3.1109,3.1118,3.1173,3.1184,3.1189,3.1141,3.1142,3.1142,3.1174,0,3.1224,3.1232,3.1215,3.1227,3.1228,3.1204,3.1209,3.12,3.119,3.1189,3.1177,3.1176,3.1158,3.1155,3.116,3.1148,3.1163,3.1145,3.1145,3.1145,3.1148,3.1195,3.1207,3.1237,3.1178,3.1178,3.1179,0,3.1263,3.1258,3.127,3.1255,3.1255,3.126,3.1253,3.1253,3.1243,3.1235,3.123,3.1214,3.1218,3.1199,3.1204,3.1192,3.1191,3.1185,3.1186,3.1185,3.1164,3.1195,3.1246,3.1251,3.1184,3.1184,3.1184,0,3.1303,3.1299,3.1306,3.1303,3.1285,3.1289,3.1282,3.1271,3.1269,3.1264,3.1262,3.1257,3.1255,3.1251,3.1234,3.1221,3.1241,3.122,3.1235,3.1235,3.124,3.124,3.1291,3.1239,3.1239,3.1239,3.1239,0,3.1341,3.1349,3.1324,3.1328,3.1337,3.1317,3.1326,3.1317,3.1307,3.1309,3.1288,3.129,3.1267,3.1267,3.1254,3.126,3.1259,3.1253,3.1249,3.1255,3.1255,3.1253,3.1251,3.124,3.124,3.124,3.1239,0,3.1387,3.137,3.1376,3.136,3.1356,3.1363,3.1348,3.1352,3.134,3.1342,3.1342,3.1323,3.1322,3.1304,3.1299,3.129,3.1302,3.1294,3.1305,3.1303,3.1318,3.1317,3.137,3.1376,3.132,3.1321,3.1321,0,3.1412,3.1418,3.1402,3.1402,3.1396,3.1396,3.1394,3.1374,3.1373,3.1362,3.1367,3.1364,3.136,3.1359,3.1345,3.1341,3.1333,3.1352,3.1332,3.1338,3.1333,3.1333,3.1334,3.1356,3.1357,3.1357,3.1358,0,3.1459,3.145,3.1448,3.1443,3.1442,3.1437,3.143,3.1432,3.141,3.1409,3.1408,3.1405,3.14,3.1397,3.1391,3.1383,3.1367,3.1364,3.1367,3.1373,3.1379,3.1376,3.1317,3.1363,3.1363,3.1362,3.1362,3.1362,3.1495,3.15,3.1489,3.1487,3.1481,3.1475,3.1478,3.1466,3.1465,3.1459,3.1447,3.1448,3.1437,3.1427,3.1421,3.1421,3.1411,3.1416,3.1417,3.1418,3.1421,3.1379,3.1419,3.1419,3.1419,3.1419,3.1419,0,3.1541,3.1533,3.1532,3.1524,3.1523,3.1507,3.15,3.15,3.1501,3.1492,3.149,3.1488,3.1485,3.1471,3.1467,3.1469,3.1462,3.1469,3.1469,3.1467,3.143,3.1428,3.1475,3.1475,3.1475,3.1475,3.1475,3.1475,3.1565,3.1571,3.1562,3.1565,3.1556,3.1557,3.1554,3.1549,3.1542,3.1542,3.1539,3.153,3.1519,3.1514,3.1511,3.1507,3.1506,3.1516,3.1509,3.1475,3.147,3.1465,3.1462,3.1516,3.1516,3.1546,3.1547,3.1547]}]]